GTI8089 ETAR-KBWI

Flight info

Callsign GTI8089
Flight time N/A
Altitude 32000
Route LIMGO N852 DIK M624 BUB L608 DENUT L610 KOPUL Q60 OKSAW/N0489F340 DCT NIRIF DCT UNBEG DCT OLGON DCT NEBIN/M085F350 NATB BUDAR/N0487F360 N436B ALLEX/N0496F380 Q822 ENE Q480 BAF Q406 BWZ J6 LRP
Aircraft B742/H-SDFHIRUWXY/L

Departure

Time 2026-05-01 12:53
Airport Ramstein Air Base (ETAR)

Arrival

Time N/A
Airport Baltimore/Washington International Thurgood Marshall Airport (KBWI)
Time Latitude Longitude Altitude Speed Heading
2026-05-01 11:45 49.43994 7.59196 788 ft 0 kts 266°
2026-05-01 12:43 49.43994 7.59195 789 ft 0 kts 266°
2026-05-01 12:43 49.43995 7.59168 789 ft 4 kts 279°
2026-05-01 12:43 49.44008 7.59107 789 ft 7 kts 296°
2026-05-01 12:43 49.44038 7.59031 789 ft 8 kts 301°
2026-05-01 12:44 49.44054 7.58948 789 ft 8 kts 276°
2026-05-01 12:44 49.44054 7.58839 788 ft 11 kts 268°
2026-05-01 12:44 49.44043 7.58531 785 ft 15 kts 266°
2026-05-01 12:45 49.44007 7.58274 783 ft 10 kts 205°
2026-05-01 12:45 49.43937 7.58271 782 ft 9 kts 175°
2026-05-01 12:45 49.43878 7.58310 781 ft 8 kts 139°
2026-05-01 12:46 49.43829 7.58357 780 ft 8 kts 165°
2026-05-01 12:46 49.43771 7.58366 779 ft 9 kts 178°
2026-05-01 12:46 49.43701 7.58370 778 ft 10 kts 178°
2026-05-01 12:46 49.43618 7.58378 778 ft 13 kts 176°
2026-05-01 12:47 49.43520 7.58388 778 ft 14 kts 176°
2026-05-01 12:47 49.43424 7.58399 778 ft 13 kts 176°
2026-05-01 12:47 49.43343 7.58406 778 ft 9 kts 181°
2026-05-01 12:47 49.43294 7.58352 778 ft 9 kts 253°
2026-05-01 12:48 49.43285 7.58244 777 ft 11 kts 264°
2026-05-01 12:48 49.43274 7.58117 777 ft 13 kts 262°
2026-05-01 12:48 49.43261 7.57970 776 ft 13 kts 268°
2026-05-01 12:48 49.43301 7.57867 776 ft 10 kts 319°
2026-05-01 12:49 49.43352 7.57801 776 ft 8 kts 321°
2026-05-01 12:49 49.43396 7.57748 776 ft 7 kts 322°
2026-05-01 12:49 49.43431 7.57705 775 ft 6 kts 322°
2026-05-01 12:49 49.43464 7.57665 775 ft 5 kts 322°
2026-05-01 12:50 49.43495 7.57627 775 ft 5 kts 322°
2026-05-01 12:50 49.43529 7.57592 775 ft 6 kts 335°
2026-05-01 12:50 49.43567 7.57588 775 ft 5 kts 21°
2026-05-01 12:50 49.43593 7.57632 775 ft 5 kts 76°
2026-05-01 12:51 49.43593 7.57695 775 ft 5 kts 94°
2026-05-01 12:51 49.43593 7.57745 775 ft 0 kts 86°
2026-05-01 12:52 49.43606 7.58035 776 ft 60 kts 87°
2026-05-01 12:53 49.43712 7.60563 820 ft 167 kts 86°
2026-05-01 12:53 49.43789 7.62398 1209 ft 178 kts 87°
2026-05-01 12:53 49.43881 7.64278 1841 ft 180 kts 87°
2026-05-01 12:54 49.44002 7.66190 2454 ft 181 kts 86°
2026-05-01 12:54 49.44230 7.70091 3111 ft 191 kts 86°
2026-05-01 12:54 49.44519 7.72090 3537 ft 191 kts 69°
2026-05-01 12:55 49.46315 7.74951 4332 ft 200 kts 28°
2026-05-01 12:55 49.47656 7.75657 4626 ft 208 kts 19°
2026-05-01 12:55 49.49016 7.76185 5227 ft 196 kts 17°
2026-05-01 12:56 49.50328 7.76605 5587 ft 198 kts 21°
2026-05-01 12:56 49.51602 7.77648 5642 ft 210 kts 44°
2026-05-01 12:56 49.52508 7.79353 5991 ft 206 kts 68°
2026-05-01 12:56 49.52846 7.81437 6361 ft 202 kts 90°
2026-05-01 12:57 49.53037 7.83580 6711 ft 207 kts 71°
2026-05-01 12:57 49.54838 7.87321 7240 ft 225 kts 53°
2026-05-01 12:57 49.55833 7.89206 7528 ft 231 kts 55°
2026-05-01 12:58 49.56492 7.91476 7698 ft 235 kts 83°
2026-05-01 12:58 49.56261 7.93900 7977 ft 235 kts 118°
2026-05-01 12:58 49.55113 7.95693 8305 ft 240 kts 153°
2026-05-01 12:59 49.51926 7.97589 8926 ft 256 kts 154°
2026-05-01 12:59 49.50298 7.98795 9196 ft 263 kts 152°
2026-05-01 12:59 49.47008 8.01416 9929 ft 269 kts 149°
2026-05-01 13:00 49.43777 8.04459 10418 ft 279 kts 145°
2026-05-01 13:00 49.42136 8.06138 10490 ft 292 kts 145°
2026-05-01 13:01 49.38564 8.09845 10881 ft 326 kts 144°
2026-05-01 13:01 49.36652 8.11831 11211 ft 337 kts 144°
2026-05-01 13:01 49.32647 8.15985 12036 ft 355 kts 144°
2026-05-01 13:02 49.30583 8.18123 12436 ft 364 kts 144°
2026-05-01 13:07 49.21999 7.47548 21346 ft 456 kts 287°
2026-05-01 13:07 49.23134 7.42965 21841 ft 456 kts 296°
2026-05-01 13:07 49.24615 7.38688 22314 ft 457 kts 301°
2026-05-01 13:08 49.26286 7.34560 22783 ft 458 kts 303°
2026-05-01 13:08 49.28039 7.30513 23222 ft 459 kts 304°
2026-05-01 13:08 49.29840 7.26458 23637 ft 461 kts 305°
2026-05-01 13:08 49.31662 7.22399 24048 ft 462 kts 305°
2026-05-01 13:09 49.33498 7.18331 24470 ft 463 kts 305°
2026-05-01 13:09 49.35332 7.14292 24889 ft 464 kts 307°
2026-05-01 13:09 49.37435 7.10616 25282 ft 462 kts 319°
2026-05-01 13:09 49.39963 7.07515 25606 ft 463 kts 322°
2026-05-01 13:10 49.42360 7.04197 25927 ft 465 kts 314°
2026-05-01 13:10 49.44378 7.00305 26251 ft 468 kts 304°
2026-05-01 13:10 49.46017 6.95992 26570 ft 470 kts 297°
2026-05-01 13:10 49.47382 6.91442 26863 ft 473 kts 293°
2026-05-01 13:11 49.48579 6.86739 27126 ft 475 kts 291°
2026-05-01 13:11 49.49675 6.81977 27394 ft 477 kts 290°
2026-05-01 13:11 49.50745 6.77098 27663 ft 479 kts 289°
2026-05-01 13:11 49.51795 6.72238 27932 ft 480 kts 289°
2026-05-01 13:12 49.52844 6.67364 28200 ft 482 kts 289°
2026-05-01 13:12 49.53891 6.62502 28461 ft 483 kts 289°
2026-05-01 13:12 49.54951 6.57585 28705 ft 485 kts 289°
2026-05-01 13:12 49.56024 6.52676 28949 ft 486 kts 291°
2026-05-01 13:13 49.57267 6.47848 29193 ft 487 kts 294°
2026-05-01 13:13 49.58679 6.43117 29437 ft 488 kts 297°
2026-05-01 13:13 49.60195 6.38447 29681 ft 489 kts 298°
2026-05-01 13:13 49.61919 6.33968 29920 ft 488 kts 307°
2026-05-01 13:14 49.64204 6.30077 30169 ft 487 kts 319°
2026-05-01 13:14 49.66903 6.26905 30417 ft 486 kts 327°
2026-05-01 13:14 49.69814 6.24263 30655 ft 486 kts 333°
2026-05-01 13:14 49.72843 6.21919 30894 ft 487 kts 335°
2026-05-01 13:15 49.75922 6.19731 31133 ft 487 kts 336°
2026-05-01 13:15 49.79026 6.17605 31311 ft 489 kts 337°
2026-05-01 13:15 49.82114 6.15500 31477 ft 491 kts 335°
2026-05-01 13:15 49.85111 6.12907 31652 ft 493 kts 327°
2026-05-01 13:16 49.87883 6.09774 31825 ft 495 kts 321°
2026-05-01 13:16 49.90494 6.06330 31995 ft 496 kts 318°
2026-05-01 13:16 49.93043 6.02686 32164 ft 495 kts 317°
2026-05-01 13:17 50.02963 5.87894 32246 ft 494 kts 316°
2026-05-01 13:18 50.10385 5.76789 32246 ft 495 kts 316°
2026-05-01 13:18 50.15346 5.69334 32244 ft 494 kts 316°